Regional Weather Roundup
Issued by NWS

Home | Current Version | Previous Version | Graphics & Text | Print | Product List | Glossary On
Versions: 1 2 3 4 5 6 7 8 9 10 11 12 13 14 15 16 17 18 19 20 21 22 23 24 25 26 27 28 29 30 31 32 33 34 35 36 37 38 39 40 41 42 43 44 45 46 47 48 49 50
000
ASUS43 KTOP 210708
RWRKS

WEATHER ROUNDUP FOR KANSAS
NATIONAL WEATHER SERVICE GOODLAND KS
200 AM CDT FRI JUL 21 2017

NOTE:  "FAIR" INDICATES FEW OR NO CLOUDS BELOW 12,000 FEET WITH NO
SIGNIFICANT WEATHER AND/OR OBSTRUCTIONS TO VISIBILITY.

KSZ001>006-013>018-027>032-041>047-210800-
NORTHWEST KANSAS

CITY           SKY/WX    TMP DP  RH WIND       PRES   REMARKS
GOODLAND       CLEAR     79  58  48 SW13      29.96F
HAYS           CLEAR     82  59  45 S10       29.92S
HILL CITY      CLEAR     83  58  42 S10       29.90S
RUSSELL        PTCLDY    80  59  48 S12       29.91S
$$

KSZ061>065-074>080-084>089-210800-
SOUTHWEST KANSAS

CITY           SKY/WX    TMP DP  RH WIND       PRES   REMARKS
DODGE CITY     CLEAR     81  59  47 S14       29.98S
ELKHART          N/A     77  47  34 S13         N/A
GARDEN CITY    CLEAR     76  57  51 S7        29.97S
LIBERAL        CLEAR     74  58  57 S9        30.01R
PRATT          CLEAR     79  60  51 S14       29.98R
$$

KSZ066>073-081>083-090>101-210800-
SOUTHEAST KANSAS

CITY           SKY/WX    TMP DP  RH WIND       PRES   REMARKS
CHANUTE        CLEAR     81  72  74 S9        29.99S
COFFEYVILLE    CLEAR     78  74  87 S5        29.98S
HUTCHINSON     CLEAR     84  66  54 S12       29.96R
MEDICINE LODGE   N/A     80  61  52 SE7       29.96S
NEWTON         CLEAR     83  69  62 S14       29.99R
PARSONS        CLEAR     79  73  82 S5        30.00S
WICHITA INTL   CLEAR     83  70  64 S13       29.97R
WICHITA JABRA  CLEAR     82  70  66 S12       29.98R
WICHITA MCCONL CLEAR     84  69  61 S15       29.98R
WINFIELD       CLEAR     82  70  66 S12       29.99R
$$

KSZ007>012-019>026-033>040-048>060-102>105-210800-
NORTHEAST KANSAS

CITY           SKY/WX    TMP DP  RH WIND       PRES   REMARKS
CONCORDIA      CLEAR     83  66  56 S14       29.90F
EMPORIA        CLEAR     81  72  74 S16       29.96S
LAWRENCE       CLEAR     83  74  74 SE6       29.95S
MANHATTAN      CLEAR     85  71  63 SW12      29.92S
MARYSVILLE     CLEAR     82  70  65 S8        29.92F
OLATHE IND     CLEAR     80  73  79 S9        29.98S
OLATHE EXE     CLEAR     79  74  84 S5        29.98S
SALINA         CLEAR     88  67  49 S16       29.92R
TOPEKA BILLARD CLEAR     84  74  71 S10       29.94S
TOPEKA FORBES  CLEAR     83  74  74 S9        29.95S
$$




USA.gov is the U.S. government's official web portal to all federal, state and local government web resources and services.